2011 EH
ephemeris date magn radius delta ra dec elong phase
Today18 Oct 202529.11.726 AU2.717 AU13h44m-12°09'4.4°2.5°
2011 EH - 2025-10-18
astro.vanbuitenen.nl


 
-1 year
-1 month
-1 day
Now
+1 day
+1 month
+1 year

The interactive orbit chart above shows the body's path through the solar system and its position at the given date. Green and blue lines are shown perpendicular to the ecliptic plane: Green if the path is above the ecliptic plane, blue if it is below. (Left-click and drag to rotate the view; Right-click and drag to move the view; Use scroll wheel to zoom in our out.)

The orbital elements of 2011 EH are:

            e (Eccentricity)                : 0.4846830
            a (Semimajor axis)              : 1.4756003
            i (Inclination)                 : 2.41510
            Ω (Longitude of ascending node) : 338.67818
            ω (Argument of perihelion)      : 96.97337
            M (Mean anomaly)                : 353.16458
            Epoch                           : 2025 May 05

            L (Longitude of perihelion)     : 255.65769
            B (Latitude of perihelion)      : 2.39722
            P (Orbital period in years)     : 1.79            
        

The light curve chart below shows the estimated development of the minor planet's magnitude.


The all-sky chart below shows the path of the minor planet over the same period as the light curve. The current position is marked yellow.





The following chart shows the path of the minor planet in the next few days. The field of view is optimized for (~10x50) binoculars and finderscopes.




Ephemerides:
Date       Time       RA (2000)    DEC (2000)    delta   radius  elong  phase   PA    magn
2025-10-18 00:00 UT   13 44 56.8   -12 09 04     2.717    1.726    4.4    2.5   127   29.1 
2025-10-18 14:36 UT   13 46 18.9   -12 16 59     2.721    1.729    4.1    2.4   128   29.1 
2025-10-19 00:00 UT   13 47 11.7   -12 22 04     2.723    1.731    4.0    2.3   129   29.1 
2025-10-20 00:00 UT   13 49 26.3   -12 34 57     2.729    1.737    3.6    2.1   131   29.1 
2025-10-21 00:00 UT   13 51 40.6   -12 47 43     2.735    1.742    3.2    1.8   133   29.1 
2025-10-22 00:00 UT   13 53 54.7   -13 00 23     2.741    1.747    2.9    1.6   136   29.1 
2025-10-23 00:00 UT   13 56 08.4   -13 12 56     2.746    1.753    2.5    1.4   141   29.1 
2025-10-24 00:00 UT   13 58 21.9   -13 25 22     2.752    1.758    2.1    1.2   146   29.1 
2025-10-25 00:00 UT   14 00 35.1   -13 37 41     2.757    1.763    1.8    1.0   154   29.1 
2025-10-26 00:00 UT   14 02 48.1   -13 49 54     2.762    1.768    1.6    0.9   165   29.1 
2025-10-27 00:00 UT   14 05 00.8   -14 02 00     2.767    1.774    1.4    0.8   180   29.1 
2025-10-28 00:00 UT   14 07 13.2   -14 13 59     2.772    1.779    1.3    0.7   198   29.1 
2025-10-29 00:00 UT   14 09 25.4   -14 25 52     2.777    1.784    1.3    0.7   216   29.1 
2025-10-30 00:00 UT   14 11 37.4   -14 37 38     2.782    1.789    1.5    0.8   232   29.1 
2025-10-31 00:00 UT   14 13 49.1   -14 49 17     2.786    1.794    1.8    1.0   243   29.1 
2025-11-01 00:00 UT   14 16 00.5   -15 00 49     2.791    1.799    2.1    1.2   251   29.2 


    Terminology:
            
    delta:  distance between minor planet and earth in AU
    radius: distance between minor planet and sun in AU
    magn:   magnitude (brightness) estimate    
    ra:     right ascension in hours (24h = 360deg)
    dec:    declination in degrees
    elong:  elongation in degrees (angle sun-earth-minor planet)    
    phase:  phase angle in degrees (angle sun-minor planet-earth)        
    AU:     Astronomical Unit (mean distance between earth and sun: 149597870.7 km
    

Orbital elements provided by the MPC (Minor Planet Center).
Calculations by a modified version of AAPlus, a C# implementation of the AA+ project by PJ Naughter from the algorithms presented in the book "Astronomical Algorithms" by Jean Meeus.
NGC2000 dso catalog and star labels from VizieR as provided by the Strasbourg astronomical Data Center.
Tycho2 catalog from the ESO archive.